マクノート彗星

338P/McNaught (2016)

English version
Home page
Updated on May 20, 2017

---------------------------------------------------------------------

・ プロフィール

符号 338P/2016 N1
検出日 2016年7月2日
検出光度 19.0等
検出者 E. Schwab, D. Abreu (European Space Agency's Optical Ground Station, Tenerife)

・ 写真集

・ 軌道要素

Epoch 2016 Nov. 28.0 TT = JDT 2457720.5
T 2016 Nov. 22.14573 TT                                 MPCW
q   2.3019377            (2000.0)            P               Q
n   0.12773310     Peri.    4.55531     +0.97003657     -0.23174860
a   3.9048145      Node     9.81001     +0.20719015     +0.63224258
e   0.4104873      Incl.   25.35045     +0.12689086     +0.73929825
P   7.72
From 445 observations 2008 May 10-2017 Jan. 30, mean residual 0".8.
     Nongravitational parameters A1 = +3.24, A2 = -1.8674.

・ 星図

・ 光度変化

        m1 = 5.5 + 5 logΔ + 30.0 log r

        ※ 灰色の曲線は、m1 = 7.5 + 5 logΔ + 20.0 log r(t + 50) の光度曲線です。

---------------------------------------------------------------------

軌道要素はM.P.E.C. 2017-J52に掲載されたものです。
星図はステラナビゲータ Ver.8 (アストロアーツ) で作成したものです。
光度グラフはComet for Windowsで作成したものです。

---------------------------------------------------------------------

Copyright(C) Seiichi Yoshida (comet@aerith.net). All rights reserved.